| time (UTC) | temp C | wind direction | speed KPH | gust KPH | rain 1hr cm | rain 24hr cm | rain mn cm | humidity % | barometer mb |
| 20260904110044 | 18 | 222 | 1.6 | 4.8 | 0.00 | 0.00 | 0.00 | 63 | 999.0 |
| 20260904105019 | 16 | 201 | 1.6 | 4.8 | 0.00 | 0.00 | 0.00 | 65 | 999.1 |
| 20260904104035 | 16 | 210 | 3.2 | 6.4 | 0.00 | 0.00 | 0.00 | 65 | 999.2 |
| 20260904103030 | 16 | 238 | 3.2 | 6.4 | 0.00 | 0.00 | 0.00 | 63 | 999.3 |
| 20260904102026 | 16 | 220 | 3.2 | 9.7 | 0.00 | 0.00 | 0.00 | 66 | 999.3 |
| 20260904101021 | 16 | 177 | 1.6 | 4.8 | 0.00 | 0.00 | 0.00 | 66 | 999.6 |
| 20260904100017 | 16 | 272 | 3.2 | 4.8 | 0.00 | 0.00 | 0.00 | 66 | 999.7 |
| 20260904095032 | 16 | 140 | 1.6 | 4.8 | 0.00 | 0.00 | 0.00 | 66 | 999.8 |
| 20260904094028 | 15 | 148 | 1.6 | 3.2 | 0.00 | 0.00 | 0.00 | 68 | 999.7 |
| 20260904093023 | 16 | 150 | 1.6 | 4.8 | 0.00 | 0.00 | 0.00 | 68 | 999.8 |
| 20260904092038 | 16 | 182 | 1.6 | 3.2 | 0.00 | 0.00 | 0.00 | 67 | 999.9 |
| 20260904091114 | 16 | 0.0 | 0.0 | 0.00 | 0.00 | 0.00 | 67 | 999.9 | |
| 20260904090049 | 16 | 130 | 0.0 | 1.6 | 0.00 | 0.00 | 0.00 | 69 | 1000.0 |
| 20260904085024 | 15 | 0.0 | 0.0 | 0.00 | 0.00 | 0.00 | 72 | 1000.0 | |
| 20260904084059 | 15 | 232 | 0.0 | 1.6 | 0.00 | 0.00 | 0.00 | 72 | 1000.2 |
| 20260904083035 | 15 | 207 | 0.0 | 1.6 | 0.00 | 0.00 | 0.00 | 73 | 1000.0 |
| 20260904082029 | 15 | 184 | 0.0 | 1.6 | 0.00 | 0.00 | 0.00 | 74 | 1000.1 |
| 20260904081026 | 13 | 0.0 | 0.0 | 0.00 | 0.00 | 0.00 | 77 | 1000.3 | |
| 20260904080021 | 14 | 245 | 0.0 | 3.2 | 0.00 | 0.00 | 0.00 | 75 | 1000.5 |
| 20260904075036 | 13 | 0.0 | 0.0 | 0.00 | 0.00 | 0.00 | 76 | 1000.5 | |
| 20260904074031 | 12 | 251 | 0.0 | 3.2 | 0.00 | 0.00 | 0.00 | 80 | 1000.5 |
| 20260904073106 | 12 | 0.0 | 0.0 | 0.00 | 0.00 | 0.00 | 79 | 1000.6 | |
| 20260904072042 | 12 | 261 | 0.0 | 1.6 | 0.00 | 0.00 | 0.00 | 80 | 1000.6 |
| 20260904071017 | 12 | 0.0 | 0.0 | 0.00 | 0.00 | 0.00 | 81 | 1000.7 | |
| 20260904070033 | 11 | 0.0 | 0.0 | 0.00 | 0.00 | 0.00 | 83 | 1000.9 | |
| 20260904065049 | 10 | 0.0 | 0.0 | 0.00 | 0.00 | 0.00 | 85 | 1000.7 | |
| 20260904064023 | 10 | 250 | 0.0 | 1.6 | 0.00 | 0.00 | 0.00 | 87 | 1000.8 |
| 20260904063043 | 8 | 0.0 | 0.0 | 0.00 | 0.00 | 0.00 | 91 | 1000.8 | |
| 20260904062033 | 8 | 214 | 0.0 | 1.6 | 0.00 | 0.00 | 0.00 | 89 | 1000.8 |
| 20260904061048 | 8 | 0.0 | 0.0 | 0.00 | 0.00 | 0.00 | 91 | 1000.8 | |
| 20260904060023 | 7 | 0.0 | 0.0 | 0.00 | 0.00 | 0.00 | 93 | 1000.6 | |
| 20260904055020 | 7 | 0.0 | 0.0 | 0.00 | 0.00 | 0.00 | 93 | 1000.7 | |
| 20260904054016 | 6 | 252 | 0.0 | 4.8 | 0.00 | 0.00 | 0.00 | 95 | 1000.9 |
| 20260904053032 | 6 | 239 | 0.0 | 1.6 | 0.00 | 0.00 | 0.00 | 98 | 1001.0 |
| 20260904052027 | 6 | 0.0 | 0.0 | 0.00 | 0.00 | 0.00 | 99 | 1001.1 | |
| 20260904051023 | 5 | 0.0 | 0.0 | 0.00 | 0.00 | 0.00 | 99 | 1001.0 | |
| 20260904050038 | 5 | 0.0 | 0.0 | 0.00 | 0.00 | 0.00 | 99 | 1001.0 | |
| 20260904045135 | 5 | 0.0 | 0.0 | 0.00 | 0.00 | 0.00 | 99 | 1000.9 | |
| 20260904044030 | 3 | 0.0 | 0.0 | 0.00 | 0.00 | 0.00 | 99 | 1001.0 | |
| 20260904043025 | 3 | 0.0 | 0.0 | 0.00 | 0.00 | 0.00 | 99 | 1001.1 | |
| 20260904042020 | 2 | 0.0 | 0.0 | 0.00 | 0.00 | 0.00 | 99 | 1000.9 | |
| 20260904041016 | 3 | 0.0 | 0.0 | 0.00 | 0.00 | 0.00 | 99 | 1001.1 | |
| 20260904040031 | 3 | 0.0 | 0.0 | 0.00 | 0.00 | 0.00 | 99 | 1001.1 | |
| 20260904035026 | 4 | 0.0 | 0.0 | 0.00 | 0.00 | 0.00 | 99 | 1001.2 | |
| 20260904034041 | 5 | 0.0 | 0.0 | 0.00 | 0.00 | 0.00 | 99 | 1001.2 | |
| 20260904033017 | 5 | 0.0 | 0.0 | 0.00 | 0.00 | 0.00 | 99 | 1001.2 | |
| 20260904032032 | 5 | 225 | 0.0 | 1.6 | 0.00 | 0.00 | 0.00 | 99 | 1001.1 |
| 20260904031027 | 5 | 0.0 | 0.0 | 0.00 | 0.00 | 0.00 | 99 | 1001.2 | |
| 20260904030023 | 5 | 237 | 0.0 | 1.6 | 0.00 | 0.00 | 0.00 | 99 | 1001.5 |
| 20260904025019 | 5 | 0.0 | 0.0 | 0.00 | 0.00 | 0.00 | 99 | 1001.5 | |
| 20260904024054 | 5 | 0.0 | 0.0 | 0.00 | 0.00 | 0.00 | 99 | 1001.5 | |
| 20260904023029 | 5 | 0.0 | 0.0 | 0.00 | 0.00 | 0.00 | 99 | 1001.6 | |
| 20260904022025 | 3 | 0.0 | 0.0 | 0.00 | 0.00 | 0.00 | 99 | 1001.6 | |
| 20260904021021 | 3 | 0.0 | 0.0 | 0.00 | 0.00 | 0.00 | 99 | 1001.7 | |
| 20260904020016 | 4 | 0.0 | 0.0 | 0.00 | 0.00 | 0.00 | 99 | 1001.7 | |
| 20260904015032 | 5 | 0.0 | 0.0 | 0.00 | 0.00 | 0.00 | 99 | 1001.7 | |
| 20260904014026 | 5 | 0.0 | 0.0 | 0.00 | 0.00 | 0.00 | 99 | 1001.9 | |
| 20260904013042 | 5 | 0.0 | 0.0 | 0.00 | 0.00 | 0.00 | 99 | 1001.9 | |
| 20260904012057 | 5 | 0.0 | 0.0 | 0.00 | 0.00 | 0.00 | 99 | 1002.0 | |
| 20260904011033 | 5 | 0.0 | 0.0 | 0.00 | 0.00 | 0.00 | 99 | 1002.0 | |
| 20260904010028 | 5 | 0.0 | 0.0 | 0.00 | 0.00 | 0.00 | 99 | 1002.2 | |
| 20260904005023 | 6 | 0.0 | 0.0 | 0.00 | 0.00 | 0.00 | 99 | 1002.2 | |
| 20260904004039 | 5 | 0.0 | 0.0 | 0.00 | 0.00 | 0.00 | 99 | 1002.5 | |
| 20260904003035 | 5 | 0.0 | 0.0 | 0.00 | 0.00 | 0.00 | 99 | 1002.3 | |
| 20260904002031 | 5 | 0.0 | 0.0 | 0.00 | 0.00 | 0.00 | 99 | 1002.4 | |
| 20260904001026 | 5 | 0.0 | 0.0 | 0.00 | 0.00 | 0.00 | 99 | 1002.5 | |
| 20260904000021 | 6 | 0.0 | 0.0 | 0.00 | 0.00 | 0.00 | 99 | 1002.3 | |
| 20260903235016 | 6 | 0.0 | 0.0 | 0.00 | 0.00 | 0.00 | 99 | 1002.6 | |
| 20260903234032 | 6 | 0.0 | 0.0 | 0.00 | 0.00 | 0.00 | 99 | 1002.5 | |
| 20260903233027 | 6 | 0.0 | 0.0 | 0.00 | 0.00 | 0.00 | 99 | 1002.7 | |
| 20260903232023 | 6 | 0.0 | 0.0 | 0.00 | 0.00 | 0.00 | 98 | 1002.8 | |
| 20260903231018 | 7 | 0.0 | 0.0 | 0.00 | 0.00 | 0.00 | 98 | 1002.7 | |
| 20260903230033 | 7 | 0.0 | 0.0 | 0.00 | 0.00 | 0.00 | 98 | 1002.7 | |
| 20260903225029 | 7 | 0.0 | 0.0 | 0.00 | 0.00 | 0.00 | 98 | 1002.8 | |
| 20260903224023 | 7 | 0.0 | 0.0 | 0.00 | 0.00 | 0.00 | 98 | 1003.0 | |
| 20260903223019 | 6 | 0.0 | 0.0 | 0.00 | 0.00 | 0.00 | 98 | 1003.0 | |
| 20260903222034 | 6 | 0.0 | 0.0 | 0.00 | 0.00 | 0.00 | 99 | 1003.1 | |
| 20260903221030 | 6 | 0.0 | 0.0 | 0.00 | 0.00 | 0.00 | 99 | 1003.1 | |
| 20260903220025 | 6 | 0.0 | 0.0 | 0.00 | 0.00 | 0.00 | 98 | 1003.1 | |
| 20260903215020 | 6 | 0.0 | 0.0 | 0.00 | 0.00 | 0.00 | 98 | 1003.2 | |
| 20260903214015 | 7 | 0.0 | 0.0 | 0.00 | 0.00 | 0.00 | 98 | 1003.1 | |
| 20260903213032 | 7 | 0.0 | 0.0 | 0.00 | 0.00 | 0.00 | 98 | 1002.9 | |
| 20260903212026 | 7 | 0.0 | 0.0 | 0.00 | 0.00 | 0.00 | 98 | 1002.9 | |
| 20260903211022 | 7 | 0.0 | 0.0 | 0.00 | 0.00 | 0.00 | 98 | 1003.0 | |
| 20260903210016 | 7 | 0.0 | 0.0 | 0.00 | 0.00 | 0.00 | 97 | 1002.9 | |
| 20260903205033 | 7 | 0.0 | 0.0 | 0.00 | 0.00 | 0.00 | 97 | 1003.1 | |
| 20260903204027 | 7 | 0.0 | 0.0 | 0.00 | 0.00 | 0.00 | 95 | 1003.0 | |
| 20260903203023 | 7 | 0.0 | 0.0 | 0.00 | 0.00 | 0.00 | 94 | 1003.0 | |
| 20260903202019 | 8 | 0.0 | 0.0 | 0.00 | 0.00 | 0.00 | 93 | 1003.1 | |
| 20260903201034 | 8 | 0.0 | 0.0 | 0.00 | 0.00 | 0.00 | 91 | 1003.2 | |
| 20260903200029 | 9 | 0.0 | 0.0 | 0.00 | 0.00 | 0.00 | 91 | 1003.2 | |
| 20260903195025 | 9 | 0.0 | 0.0 | 0.00 | 0.00 | 0.00 | 90 | 1003.4 | |
| 20260903194020 | 10 | 0.0 | 0.0 | 0.00 | 0.00 | 0.00 | 88 | 1003.5 | |
| 20260903193015 | 10 | 0.0 | 0.0 | 0.00 | 0.00 | 0.00 | 87 | 1003.5 | |
| 20260903192030 | 10 | 0.0 | 0.0 | 0.00 | 0.00 | 0.00 | 85 | 1003.3 | |
| 20260903191030 | 10 | 0.0 | 0.0 | 0.00 | 0.00 | 0.00 | 85 | 1003.3 | |
| 20260903190021 | 11 | 0.0 | 0.0 | 0.00 | 0.00 | 0.00 | 84 | 1003.3 | |
| 20260903185016 | 12 | 0.0 | 0.0 | 0.00 | 0.00 | 0.00 | 80 | 1003.3 | |
| 20260903184032 | 11 | 0.0 | 0.0 | 0.00 | 0.00 | 0.00 | 82 | 1003.2 | |
| 20260903183027 | 11 | 0.0 | 0.0 | 0.00 | 0.00 | 0.00 | 82 | 1003.2 | |
| 20260903182043 | 11 | 0.0 | 0.0 | 0.00 | 0.00 | 0.00 | 78 | 1003.4 | |
| 20260903181018 | 12 | 0.0 | 0.0 | 0.00 | 0.00 | 0.00 | 74 | 1003.4 | |
| 20260903180034 | 14 | 0.0 | 0.0 | 0.00 | 0.00 | 0.00 | 67 | 1003.5 | |
| 20260903175030 | 15 | 239 | 0.0 | 3.2 | 0.00 | 0.00 | 0.00 | 63 | 1003.6 |
| 20260903174024 | 14 | 0.0 | 0.0 | 0.00 | 0.00 | 0.00 | 70 | 1003.7 | |
| 20260903173020 | 15 | 0.0 | 0.0 | 0.00 | 0.00 | 0.00 | 71 | 1003.3 | |
| 20260903172034 | 16 | 0.0 | 0.0 | 0.00 | 0.00 | 0.00 | 65 | 1003.3 | |
| 20260903171030 | 16 | 186 | 0.0 | 1.6 | 0.00 | 0.00 | 0.00 | 61 | 1003.2 |
| 20260903170045 | 17 | 188 | 0.0 | 1.6 | 0.00 | 0.00 | 0.00 | 58 | 1003.2 |
| 20260903165021 | 17 | 214 | 1.6 | 3.2 | 0.00 | 0.00 | 0.00 | 57 | 1003.2 |
| 20260903164036 | 17 | 211 | 3.2 | 4.8 | 0.00 | 0.00 | 0.00 | 55 | 1003.3 |
| 20260903163031 | 18 | 242 | 4.8 | 11.3 | 0.00 | 0.00 | 0.00 | 53 | 1003.2 |
| 20260903162026 | 18 | 245 | 6.4 | 9.7 | 0.00 | 0.00 | 0.00 | 52 | 1003.3 |
| 20260903161022 | 17 | 239 | 6.4 | 9.7 | 0.00 | 0.00 | 0.00 | 52 | 1003.3 |
| 20260903160018 | 18 | 244 | 4.8 | 12.9 | 0.00 | 0.00 | 0.00 | 51 | 1003.4 |
| 20260903155033 | 17 | 245 | 4.8 | 11.3 | 0.00 | 0.00 | 0.00 | 52 | 1003.4 |
| 20260903154028 | 18 | 259 | 8.0 | 16.1 | 0.00 | 0.00 | 0.00 | 49 | 1003.3 |
| 20260903153023 | 18 | 258 | 6.4 | 12.9 | 0.00 | 0.00 | 0.00 | 49 | 1003.3 |
| 20260903152019 | 18 | 247 | 6.4 | 12.9 | 0.00 | 0.00 | 0.00 | 51 | 1003.4 |
| 20260903151055 | 17 | 224 | 4.8 | 6.4 | 0.00 | 0.00 | 0.00 | 52 | 1003.6 |
| 20260903150030 | 18 | 263 | 6.4 | 11.3 | 0.00 | 0.00 | 0.00 | 50 | 1003.4 |
| 20260903145024 | 18 | 248 | 4.8 | 9.7 | 0.00 | 0.00 | 0.00 | 50 | 1003.5 |
| 20260903144019 | 18 | 244 | 8.0 | 14.5 | 0.00 | 0.00 | 0.00 | 50 | 1003.5 |
| 20260903143034 | 18 | 252 | 9.7 | 17.7 | 0.00 | 0.00 | 0.00 | 49 | 1003.6 |
| 20260903142050 | 18 | 242 | 9.7 | 14.5 | 0.00 | 0.00 | 0.00 | 50 | 1003.6 |
| 20260903141025 | 18 | 254 | 11.3 | 17.7 | 0.00 | 0.00 | 0.00 | 49 | 1003.4 |
| 20260903140020 | 18 | 240 | 9.7 | 17.7 | 0.00 | 0.00 | 0.00 | 50 | 1003.6 |
| 20260903135036 | 19 | 229 | 4.8 | 12.9 | 0.00 | 0.00 | 0.00 | 50 | 1003.6 |
| 20260903134212 | 18 | 244 | 9.7 | 16.1 | 0.00 | 0.00 | 0.00 | 49 | 1003.6 |
| 20260903133026 | 18 | 246 | 9.7 | 17.7 | 0.00 | 0.00 | 0.00 | 50 | 1003.6 |
| 20260903132042 | 17 | 278 | 9.7 | 16.1 | 0.00 | 0.00 | 0.00 | 50 | 1003.7 |
| 20260903131037 | 17 | 260 | 3.2 | 6.4 | 0.00 | 0.00 | 0.00 | 53 | 1003.6 |
| 20260903130033 | 17 | 250 | 8.0 | 17.7 | 0.00 | 0.00 | 0.00 | 52 | 1003.6 |
| 20260903125028 | 17 | 243 | 6.4 | 16.1 | 0.00 | 0.00 | 0.00 | 53 | 1003.5 |
| 20260903124043 | 18 | 235 | 9.7 | 17.7 | 0.00 | 0.00 | 0.00 | 51 | 1003.5 |
| 20260903123018 | 18 | 240 | 6.4 | 14.5 | 0.00 | 0.00 | 0.00 | 52 | 1003.5 |
| 20260903122034 | 17 | 237 | 6.4 | 14.5 | 0.00 | 0.00 | 0.00 | 54 | 1003.6 |
| 20260903121029 | 17 | 238 | 6.4 | 12.9 | 0.00 | 0.00 | 0.00 | 53 | 1003.6 |
| 20260903120024 | 18 | 258 | 8.0 | 12.9 | 0.00 | 0.00 | 0.00 | 52 | 1003.4 |
| 20260903115020 | 18 | 245 | 9.7 | 17.7 | 0.00 | 0.00 | 0.00 | 53 | 1003.5 |
| 20260903114035 | 18 | 256 | 9.7 | 14.5 | 0.00 | 0.00 | 0.00 | 52 | 1003.6 |
| 20260903113031 | 17 | 274 | 12.9 | 22.5 | 0.00 | 0.00 | 0.00 | 51 | 1003.5 |
| 20260903112025 | 17 | 271 | 11.3 | 22.5 | 0.00 | 0.00 | 0.00 | 51 | 1003.6 |
| 20260903111020 | 17 | 248 | 8.0 | 14.5 | 0.00 | 0.00 | 0.00 | 53 | 1003.6 |